Content
SEND FEEDBACK

Daily
Averages
Monthly
Summary
Mexico

PLAYA DEL CARMEN, QUINTANA ROO


Home > North America > Mexico > Quintana Roo
Elevation: 30 feet     Latitude: 20 38N     Longitude: 087 04W

WEATHER
 
SELECT A DAY
Number of Records: 201,821;   Date Range: 2/21/06 - 10/19/14
 
SHARE

PRINT THIS DATA

[ ← Previous Day ]
WEATHER ALMANAC - JULY 16, 2013
[ Next Day → ]
[ °C ]   °F
Weather ElementAverageHighLow
Temperature79.1 °F91.4 °F (1:15 pm)75.2 °F (4:15 am)
Dewpoint20.4 °F78.8 °F (8:55 am) (7:00 pm)
Humidity63.6 %94 % (8:55 am)46 % (1:15 pm)
Barometer30.15 in30.20 in (3:15 pm)30.11 in (3:55 am)
Wind Speed7 mph19.6 mph (2:55 pm)
Wind Gust34.5 mph (2:55 pm)
Weather ElementAverage
Visibility9.8 mi
Wind DirectionENE (77.2 °)

Weather ElementTotal
Precipitation0.24 in
Cooling Degree Days18.3 (Base 65)
Growing Degree Days33.3 (Base 50)
Averaged from 67 records on July 16, 2013
WEATHER CONDITIONS BREAKOUT
WIND DIRECTION BREAKOUT
WEATHER BY HOUR - JULY 16, 2013
[ °C ]   °F
Local TimeTemperatureDewpointHumidityBarometerVisibilityWind DirectionWind SpeedGust SpeedPrecipitationEventsConditions
12:35 AM78.8 °F0.0 °F30.14 in10.0 miEast (100°)5.8 mphMostly Cloudy
12:55 AM77.0 °F0.0 °F30.14 in10.0 miEast (100°)5.8 mphClear
1:15 AM77.0 °F0.0 °F30.13 in10.0 miEast (100°)8.1 mphClear
1:35 AM77.0 °F0.0 °F30.13 in10.0 miEast (100°)6.9 mphClear
1:55 AM77.0 °F0.0 °F30.13 in10.0 miEast (100°)4.6 mphClear
2:15 AM77.0 °F0.0 °F30.13 in10.0 miEast (100°)4.6 mphClear
2:35 AM77.0 °F0.0 °F30.13 in10.0 miEast (100°)3.5 mphClear
2:55 AM77.0 °F0.0 °F30.12 in10.0 miEast (90°)4.6 mphClear
3:15 AM77.0 °F0.0 °F30.12 in10.0 miENE (70°)4.6 mphClear
3:35 AM77.0 °F0.0 °F30.12 in10.0 miENE (70°)5.8 mphClear
3:55 AM77.0 °F0.0 °F30.11 in10.0 miENE (70°)4.6 mphScattered Clouds
4:15 AM75.2 °F0.0 °F30.11 in10.0 miENE (70°)4.6 mphScattered Clouds
4:35 AM75.2 °F0.0 °F30.12 in10.0 miENE (70°)3.5 mphClear
4:55 AM75.2 °F0.0 °F30.12 in10.0 miENE (60°)6.9 mphClear
5:15 AM75.2 °F0.0 °F30.12 in10.0 miENE (70°)4.6 mphClear
5:35 AM75.2 °F0.0 °F30.12 in10.0 miENE (70°)6.9 mphClear
5:55 AM75.2 °F0.0 °F30.13 in10.0 miENE (70°)5.8 mphClear
6:15 AM75.2 °F0.0 °F30.13 in10.0 miENE (60°)4.6 mphClear
6:35 AM75.2 °F0.0 °F30.14 in10.0 miENE (60°)6.9 mphClear
6:55 AM75.2 °F0.0 °F30.14 in10.0 miENE (60°)6.9 mphClear
7:15 AM75.2 °F0.0 °F30.14 in10.0 miENE (60°)5.8 mphClear
7:35 AM77.0 °F0.0 °F30.14 in10.0 miENE (60°)4.6 mphClear
7:55 AM78.8 °F0.0 °F30.15 in10.0 miENE (70°)5.8 mphClear
8:15 AM78.8 °F0.0 °F30.15 in10.0 miEast (80°)6.9 mphClear
8:35 AM80.6 °F0.0 °F30.16 in10.0 miEast (80°)9.2 mphClear
8:55 AM80.6 °F78.8 °F94 %30.16 in10.0 miENE (70°)6.9 mphClear
9:15 AM82.4 °F75.2 °F79 %30.17 in10.0 miESE (110°)10.4 mphScattered Clouds
9:35 AM82.4 °F75.2 °F79 %30.17 in10.0 miENE (70°)12.7 mphMostly Cloudy
9:55 AM84.2 °F75.2 °F74 %30.17 in10.0 miENE (70°)13.8 mph17.3 mphMostly Cloudy
10:15 AM84.2 °F73.4 °F70 %30.17 in10.0 miEast (90°)8.1 mphMostly Cloudy
10:35 AM86.0 °F73.4 °F66 %30.17 in10.0 miEast (80°)10.4 mph16.1 mphScattered Clouds
10:55 AM86.0 °F71.6 °F62 %30.18 in10.0 miEast (90°)6.9 mphScattered Clouds
11:15 AM86.0 °F71.6 °F62 %30.17 in10.0 miEast (90°)6.9 mph16.1 mphMostly Cloudy
11:55 AM89.6 °F71.6 °F55 %30.17 in10.0 miEast (80°)12.7 mph16.1 mphScattered Clouds
12:15 PM89.6 °F71.6 °F55 %30.17 in10.0 miESE (110°)9.2 mph16.1 mphScattered Clouds
12:35 PM89.6 °F68.0 °F49 %30.17 in10.0 miEast (90°)9.2 mph17.3 mphScattered Clouds
12:55 PM89.6 °F68.0 °F49 %30.17 in10.0 miEast (100°)13.8 mph19.6 mphMostly Cloudy
1:15 PM91.4 °F68.0 °F46 %30.15 in10.0 miEast (80°)8.1 mph18.4 mphScattered Clouds
1:35 PM91.4 °F68.0 °F46 %30.15 in10.0 miEast (90°)10.4 mphScattered Clouds
1:55 PM89.6 °F69.8 °F52 %30.15 in10.0 miEast (80°)9.2 mphScattered Clouds
2:15 PM87.8 °F69.8 °F55 %30.15 in10.0 miEast (90°)6.9 mphScattered Clouds
2:35 PM91.4 °F71.6 °F52 %30.15 in10.0 miEast (90°)11.5 mph16.1 mphClear
2:55 PM80.6 °F69.8 °F70 %30.17 in10.0 miSE (140°)19.6 mph34.5 mphMostly Cloudy
3:15 PM75.2 °F73.4 °F94 %30.20 in4.0 miESE (120°)17.3 mph28.8 mph0.06 inRainHeavy Rain
3:35 PM75.2 °F0.0 °F30.17 in5.0 miESE (120°)6.9 mph0.18 inRainLight Rain
4:55 PM75.2 °F0.0 °F30.15 in10.0 miEast (80°)5.8 mphClear
5:15 PM75.2 °F0.0 °F30.15 in10.0 miENE (70°)5.8 mphClear
5:35 PM75.2 °F0.0 °F30.14 in10.0 miEast (90°)5.8 mphClear
5:55 PM77.0 °F0.0 °F30.16 in10.0 miNNE (20°)5.8 mphClear
6:15 PM77.0 °F0.0 °F30.15 in10.0 miESE (120°)3.5 mphScattered Clouds
6:35 PM77.0 °F0.0 °F30.15 in10.0 miEast (100°)3.5 mphClear
6:55 PM77.0 °F0.0 °F30.14 in10.0 miEast (90°)3.5 mphClear
7:15 PM77.0 °F0.0 °F30.15 in10.0 miNE (40°)5.8 mphClear
7:35 PM77.0 °F0.0 °F30.16 in10.0 miNE (50°)4.6 mphClear
7:55 PM77.0 °F0.0 °F30.17 in10.0 miENE (60°)6.9 mphClear
8:15 PM77.0 °F0.0 °F30.17 in10.0 miENE (70°)4.6 mphClear
8:35 PM75.2 °F0.0 °F30.17 in10.0 miENE (60°)5.8 mphClear
8:55 PM75.2 °F0.0 °F30.17 in10.0 miNE (50°)4.6 mphClear
9:15 PM75.2 °F0.0 °F30.17 in10.0 miNE (40°)5.8 mphClear
9:35 PM75.2 °F0.0 °F30.18 in10.0 miNE (50°)4.6 mphClear
9:55 PM75.2 °F0.0 °F30.18 in10.0 miENE (70°)5.8 mphClear
10:15 PM75.2 °F0.0 °F30.18 in10.0 miENE (60°)5.8 mphClear
10:35 PM75.2 °F0.0 °F30.19 in10.0 miNE (50°)4.6 mphClear
10:55 PM75.2 °F0.0 °F30.19 in10.0 miENE (60°)5.8 mphClear
11:15 PM75.2 °F0.0 °F30.18 in10.0 miNE (40°)4.6 mphClear
11:35 PM75.2 °F0.0 °F30.18 in10.0 miNE (40°)4.6 mphClear
11:55 PM75.2 °F0.0 °F30.19 in10.0 miENE (60°)5.8 mphClear
Hourly data recorded from KPCM, located miles away from Playa del Carmen, Quintana Roo







STORIES FROM OUR PARTNERS